Charleroi, Belgium

4:16 PM CEST on April 25, 2018 (GMT +0200)
Brussels South

Weather History for EBCI - December, 2011

Change the Weather History Date:

Sunday, December 25, 2011

  Actual Average Record
Temperature  
Mean Temperature 42 °F -  
Max Temperature 47 °F 40 °F 59 °F (1997)
Min Temperature 37 °F 31 °F 15 °F (1996)
Degree Days  
Heating Degree Days 23    
Moisture  
Dew Point 41 °F    
Average Humidity 90    
Maximum Humidity 100    
Minimum Humidity 79    
Precipitation  
Precipitation 0.04 in - - ()
Sea Level Pressure  
Sea Level Pressure 30.47 in    
Wind  
Wind Speed 13 mph ()    
Max Wind Speed 18 mph    
Max Gust Speed -    
Visibility 5.7 miles    
Events Rain    
Averages and records for this station are not official NWS values.
T = Trace of Precipitation, MM = Missing Value Source: Averaged Metar Reports

Daily Weather History Graph

Daily Weather History Graph

Search for Another Location

Airport or City:

Astronomy

Dec. 25, 2011 Rise Set
Actual Time 8:41 AM CET 4:42 PM CET
Civil Twilight 8:02 AM CET 5:21 PM CET
Nautical Twilight 7:20 AM CET 6:03 PM CET
Astronomical Twilight 6:40 AM CET 6:43 PM CET
Moon 9:04 AM CET 5:50 PM CET
Length of Visible Light 9h 18m
Length of Day
8h 00m
New Moon, 1% of the Moon is Illuminated
Dec 25
New Moon
Jan 1
First Quarter
Jan 9
Full
Jan 16
Last Quarter
Jan 23
New

Hourly Weather History & Observations

Time (CET) Temp. Windchill Dew Point Humidity Pressure Visibility Wind Dir Wind Speed Gust Speed Precip Events Conditions
12:20 AM 41.0 °F 33.1 °F 35.6 °F 81% 30.42 in 6.2 mi SW 15.0 mph - N/A   Scattered Clouds
12:50 AM 41.0 °F 33.1 °F 37.4 °F 87% 30.42 in 6.2 mi SW 15.0 mph - N/A   Scattered Clouds
1:00 AM 41 °F - 37 °F 79% 30.46 in 11 mi SW 15.7 mph - -   Partly Cloudy
1:20 AM 41.0 °F 33.1 °F 37.4 °F 87% 30.42 in 6.2 mi SW 15.0 mph - N/A   Scattered Clouds
1:50 AM 41.0 °F 33.5 °F 37.4 °F 87% 30.42 in 6.2 mi SW 13.8 mph - N/A   Mostly Cloudy
2:20 AM 41.0 °F 33.5 °F 37.4 °F 87% 30.42 in 6.2 mi SW 13.8 mph - N/A   Mostly Cloudy
2:50 AM 41.0 °F 33.5 °F 37.4 °F 87% 30.42 in 6.2 mi SW 13.8 mph - N/A   Mostly Cloudy
3:20 AM 41.0 °F 33.1 °F 37.4 °F 87% 30.42 in 6.2 mi SW 15.0 mph - N/A   Mostly Cloudy
3:50 AM 41.0 °F 33.9 °F 37.4 °F 87% 30.42 in 6.2 mi SW 12.7 mph - N/A   Mostly Cloudy
4:00 AM 41 °F - 38 °F 86% 30.45 in 11 mi SW 13.4 mph - -   Mostly Cloudy
4:20 AM 41.0 °F 33.1 °F 39.2 °F 93% 30.42 in 6.2 mi SW 15.0 mph - N/A   Mostly Cloudy
4:50 AM 41.0 °F 33.5 °F 39.2 °F 93% 30.42 in 6.2 mi SW 13.8 mph - N/A   Mostly Cloudy
5:20 AM 41.0 °F 33.1 °F 39.2 °F 93% 30.39 in 6.2 mi SW 15.0 mph - N/A Rain Light Drizzle
5:50 AM 41.0 °F 33.5 °F 39.2 °F 93% 30.42 in 6.2 mi SW 13.8 mph - N/A   Mostly Cloudy
6:20 AM 41.0 °F 33.9 °F 39.2 °F 93% 30.42 in 6.2 mi SSW 12.7 mph - N/A   Mostly Cloudy
6:50 AM 41.0 °F 33.9 °F 39.2 °F 93% 30.42 in 3.1 mi SSW 12.7 mph - N/A Rain Light Rain
7:00 AM 41 °F - 40 °F 94% 30.44 in 3 mi SSW 11.2 mph - - Rain Light Rain
7:20 AM 41.0 °F 33.9 °F 39.2 °F 93% 30.42 in 6.2 mi SSW 12.7 mph - N/A   Mostly Cloudy
7:50 AM 41.0 °F 33.5 °F 41.0 °F 100% 30.42 in 5.0 mi SW 13.8 mph - N/A   Light Drizzle
8:20 AM 42.8 °F 35.8 °F 41.0 °F 93% 30.42 in 5.0 mi SW 13.8 mph - N/A   Light Drizzle
8:50 AM 42.8 °F 36.6 °F 41.0 °F 93% 30.45 in 1.6 mi SW 11.5 mph - N/A Rain Rain
9:20 AM 42.8 °F 35.8 °F 41.0 °F 93% 30.45 in 1.6 mi SW 13.8 mph - N/A Rain Rain
9:50 AM 42.8 °F 35.8 °F 41.0 °F 93% 30.45 in 1.6 mi SW 13.8 mph - N/A Rain Rain
10:00 AM 42 °F - 41 °F 97% 30.49 in 2 mi SW 13.4 mph - - Rain Heavy Rain
10:20 AM 42.8 °F 35.8 °F 41.0 °F 93% 30.45 in 1.6 mi SW 13.8 mph - N/A Rain Light Rain
10:50 AM 42.8 °F 35.8 °F 41.0 °F 93% 30.48 in 1.2 mi SW 13.8 mph - N/A Rain Light Rain
11:20 AM 42.8 °F 35.8 °F 42.8 °F 100% 30.48 in 2.2 mi SW 13.8 mph - N/A Rain Light Rain
11:50 AM 44.6 °F 38.1 °F 42.8 °F 93% 30.45 in 3.7 mi SW 13.8 mph - N/A   Mostly Cloudy
12:20 PM 44.6 °F 37.4 °F 42.8 °F 93% 30.45 in 5.0 mi SW 16.1 mph - N/A   Mostly Cloudy
12:50 PM 44.6 °F 37.8 °F 42.8 °F 93% 30.45 in 5.0 mi SW 15.0 mph - N/A   Mostly Cloudy
1:00 PM 45 °F - 43 °F 92% 30.49 in 5 mi SW 13.4 mph - -   Partly Cloudy
1:20 PM 44.6 °F 38.4 °F 42.8 °F 93% 30.45 in 4.3 mi SW 12.7 mph - N/A   Mostly Cloudy
1:50 PM 46.4 °F 40.7 °F 42.8 °F 87% 30.45 in 6.2 mi SW 12.7 mph - N/A   Mostly Cloudy
2:20 PM 46.4 °F 40.1 °F 42.8 °F 87% 30.45 in 6.2 mi SW 15.0 mph - N/A   Mostly Cloudy
2:50 PM 46.4 °F 40.7 °F 44.6 °F 93% 30.45 in 6.2 mi SW 12.7 mph - N/A   Mostly Cloudy
3:20 PM 46.4 °F 40.1 °F 44.6 °F 93% 30.48 in 6.2 mi WSW 15.0 mph - N/A   Mostly Cloudy
3:50 PM 46.4 °F 40.7 °F 44.6 °F 93% 30.48 in 6.2 mi SW 12.7 mph - N/A   Mostly Cloudy
4:00 PM 47 °F - 44 °F 86% 30.50 in 8 mi SW 11.2 mph - -   Mostly Cloudy
4:20 PM 46.4 °F 40.7 °F 44.6 °F 93% 30.48 in 6.2 mi SW 12.7 mph - N/A   Mostly Cloudy
4:50 PM 46.4 °F 41.1 °F 44.6 °F 93% 30.48 in 6.2 mi SSW 11.5 mph - N/A   Mostly Cloudy
5:20 PM 46.4 °F 40.4 °F 44.6 °F 93% 30.51 in 6.2 mi SSW 13.8 mph - N/A   Mostly Cloudy
5:50 PM 46.4 °F 40.1 °F 44.6 °F 93% 30.51 in 6.2 mi SW 15.0 mph - N/A Rain Light Rain
6:20 PM 46.4 °F 40.1 °F 44.6 °F 93% 30.51 in 6.2 mi SSW 15.0 mph - N/A   Mostly Cloudy
6:50 PM 46.4 °F 40.4 °F 44.6 °F 93% 30.51 in 6.2 mi SW 13.8 mph - N/A   Mostly Cloudy
7:00 PM 47 °F - 44 °F 85% 30.53 in 11 mi SW 13.4 mph - - Rain Light Rain
7:20 PM 46.4 °F 40.1 °F 42.8 °F 87% 30.51 in 6.2 mi SW 15.0 mph - N/A   Mostly Cloudy
7:50 PM 46.4 °F 39.5 °F 42.8 °F 87% 30.51 in 6.2 mi SW 17.3 mph - N/A   Mostly Cloudy
8:20 PM 46.4 °F 39.8 °F 42.8 °F 87% 30.51 in 6.2 mi SW 16.1 mph - N/A   Mostly Cloudy
8:50 PM 46.4 °F 40.1 °F 42.8 °F 87% 30.54 in 6.2 mi SW 15.0 mph - N/A   Mostly Cloudy
9:20 PM 46.4 °F 40.1 °F 42.8 °F 87% 30.54 in 6.2 mi SW 15.0 mph - N/A   Mostly Cloudy
9:50 PM 46.4 °F 39.2 °F 42.8 °F 87% 30.54 in 6.2 mi SW 18.4 mph - N/A   Mostly Cloudy
10:00 PM 47 °F - 43 °F 81% 30.56 in 12 mi SW 17.9 mph - -   Mostly Cloudy
10:20 PM 46.4 °F 39.8 °F 42.8 °F 87% 30.54 in 6.2 mi SW 16.1 mph - N/A   Mostly Cloudy
10:50 PM 46.4 °F 39.5 °F 42.8 °F 87% 30.57 in 6.2 mi SW 17.3 mph - N/A   Mostly Cloudy
11:20 PM 46.4 °F 40.1 °F 42.8 °F 87% 30.57 in 6.2 mi SW 15.0 mph - N/A   Mostly Cloudy
11:50 PM 46.4 °F 39.8 °F 42.8 °F 87% 30.57 in 6.2 mi SW 16.1 mph - N/A   Mostly Cloudy